Weather History for KGNV - December, 2013

Change the Weather History Date:

Monday, December 9, 2013

  Actual Average Record
Temperature  
Mean Temperature 72 °F 57 °F  
Max Temperature 83 °F 69 °F 87 °F (1951)
Min Temperature 61 °F 46 °F 25 °F (1917)
Degree Days  
Heating Degree Days 0 9  
Month to date heating degree days 10 70  
Since 1 July heating degree days 103 231  
Cooling Degree Days 7 1  
Month to date cooling degree days 31 9  
Year to date cooling degree days 2856 2625  
Growing Degree Days 21 (Base 50)    
Moisture  
Dew Point 64 °F    
Average Humidity 78    
Maximum Humidity 100    
Minimum Humidity 55    
Precipitation  
Precipitation 0.00 in 0.08 in 1.54 in (1969)
Month to date precipitation 0.00 0.67  
Year to date precipitation 43.29 45.60  
Snow  
Snow 0.00 in 0.00 in 0.00 in ()
Month to date snowfall 0.0 0.0  
Since 1 July snowfall 0.0 0.0  
Snow Depth 0.00 in    
Sea Level Pressure  
Sea Level Pressure 30.16 in    
Wind  
Wind Speed 5 mph (SSW)    
Max Wind Speed 15 mph    
Max Gust Speed 20 mph    
Visibility 5 miles    
Events Fog    
T = Trace of Precipitation, MM = Missing Value Source: NWS Daily Summary

Daily Weather History Graph

Daily Weather History Graph

Search for Another Location

Airport or City:

Trip Planner

Search our weather history database for the weather conditions in past years. The results will help you decide how hot, cold, wet, or windy it might be!

Date:

Astronomy

Dec. 09, 2013 Rise Set
Actual Time 7:12 AM EST 5:30 PM EST
Civil Twilight 6:46 AM EST 5:56 PM EST
Nautical Twilight 6:17 AM EST 6:26 PM EST
Astronomical Twilight 5:47 AM EST 6:55 PM EST
Moon 12:31 PM EST (12/9) No Moon Set
Length of Visible Light 11h 09m
Length of Day
10h 17m
Waxing Crescent, 51% of the Moon is Illuminated
Dec 9
Waxing Crescent
Dec 17
Full
Dec 25
Last Quarter
Jan 1
New
Jan 7
First Quarter

Hourly Weather History & Observations

Time (EST) Temp. Heat Index Dew Point Humidity Pressure Visibility Wind Dir Wind Speed Gust Speed Precip Events Conditions
12:53 AM 66.0 °F - 64.9 °F 96% 30.17 in 7.0 mi Calm Calm - N/A   Overcast
1:53 AM 66.0 °F - 64.0 °F 93% 30.17 in 7.0 mi Calm Calm - N/A   Overcast
2:42 AM 63.0 °F - 63.0 °F 100% 30.17 in 0.8 mi Calm Calm - N/A   Overcast
2:53 AM 64.0 °F - 64.0 °F 100% 30.16 in 1.2 mi Calm Calm - N/A   Overcast
3:01 AM 64.0 °F - 64.0 °F 100% 30.17 in 3.0 mi Calm Calm - N/A   Overcast
3:13 AM 64.0 °F - 63.0 °F 96% 30.16 in 1.8 mi Calm Calm - N/A   Overcast
3:43 AM 63.0 °F - 63.0 °F 100% 30.17 in 0.5 mi Calm Calm - N/A Fog Fog
3:50 AM 62.6 °F - 62.6 °F 100% 30.17 in 0.2 mi Calm Calm - N/A Fog Fog
3:53 AM 63.0 °F - 62.1 °F 97% 30.16 in 0.2 mi Calm Calm - N/A Fog Fog
4:05 AM 62.1 °F - 61.0 °F 96% 30.17 in 0.5 mi Calm Calm - N/A Fog Fog
4:22 AM 62.1 °F - 62.1 °F 100% 30.17 in 1.5 mi NE 3.5 mph - N/A   Overcast
4:32 AM 62.1 °F - 62.1 °F 100% 30.17 in 3.0 mi Calm Calm - N/A   Overcast
4:41 AM 62.1 °F - 62.1 °F 100% 30.17 in 1.8 mi Calm Calm - N/A   Overcast
4:53 AM 61.0 °F - 61.0 °F 100% 30.17 in 0.8 mi Calm Calm - N/A   Overcast
5:02 AM 62.1 °F - 62.1 °F 100% 30.17 in 0.2 mi Calm Calm - N/A Fog Fog
5:13 AM 62.1 °F - 62.1 °F 100% 30.17 in 0.8 mi Calm Calm - N/A   Mostly Cloudy
5:16 AM 62.1 °F - 62.1 °F 100% 30.17 in 2.0 mi Calm Calm - N/A   Mostly Cloudy
5:18 AM 61.0 °F - 61.0 °F 100% 30.17 in 4.0 mi Calm Calm - N/A   Mostly Cloudy
5:26 AM 62.1 °F - 62.1 °F 100% 30.17 in 1.5 mi Calm Calm - N/A   Mostly Cloudy
5:29 AM 62.1 °F - 62.1 °F 100% 30.17 in 0.8 mi Calm Calm - N/A   Overcast
5:37 AM 63.0 °F - 63.0 °F 100% 30.17 in 1.0 mi Calm Calm - N/A   Overcast
5:41 AM 63.0 °F - 63.0 °F 100% 30.17 in 3.0 mi Calm Calm - N/A   Overcast
5:48 AM 62.6 °F - 62.6 °F 100% 30.17 in 5.0 mi Calm Calm - N/A   Overcast
5:53 AM 63.0 °F - 62.1 °F 97% 30.16 in 5.0 mi Calm Calm - N/A   Overcast
6:10 AM 62.1 °F - 62.1 °F 100% 30.17 in 2.0 mi Calm Calm - N/A   Overcast
6:16 AM 62.1 °F - 62.1 °F 100% 30.17 in 1.5 mi Calm Calm - N/A   Overcast
6:26 AM 63.0 °F - 62.1 °F 97% 30.17 in 0.5 mi SE 3.5 mph - N/A Fog Fog
6:43 AM 61.0 °F - 61.0 °F 100% 30.17 in 2.0 mi Calm Calm - N/A   Overcast
6:50 AM 60.8 °F - 60.8 °F 100% 30.17 in 3.0 mi Calm Calm - N/A   Overcast
6:53 AM 61.0 °F - 61.0 °F 100% 30.17 in 3.0 mi NNW 3.5 mph - N/A   Overcast
7:06 AM 62.1 °F - 62.1 °F 100% 30.17 in 6.0 mi Calm Calm - N/A   Overcast
7:37 AM 62.1 °F - 61.0 °F 96% 30.18 in 2.5 mi Calm Calm - N/A   Overcast
7:48 AM 62.6 °F - 60.8 °F 94% 30.18 in 4.0 mi Calm Calm - N/A   Overcast
7:53 AM 62.1 °F - 61.0 °F 96% 30.18 in 5.0 mi Calm Calm - N/A   Overcast
8:11 AM 64.9 °F - 64.0 °F 97% 30.18 in 5.0 mi SE 3.5 mph - N/A   Overcast
8:53 AM 68.0 °F - 66.9 °F 96% 30.18 in 9.0 mi SSE 6.9 mph - N/A   Partly Cloudy
9:53 AM 75.9 °F - 66.9 °F 74% 30.18 in 10.0 mi South 11.5 mph - N/A   Clear
10:53 AM 79.0 °F - 64.9 °F 62% 30.18 in 10.0 mi South 9.2 mph - N/A   Clear
11:53 AM 82.0 °F 83.4 °F 64.0 °F 54% 30.16 in 10.0 mi SSW 9.2 mph - N/A   Partly Cloudy
12:53 PM 82.0 °F 83.8 °F 64.9 °F 56% 30.13 in 10.0 mi SSW 11.5 mph - N/A   Mostly Cloudy
1:53 PM 81.0 °F 82.7 °F 64.9 °F 58% 30.11 in 10.0 mi SW 10.4 mph - N/A   Scattered Clouds
2:53 PM 82.0 °F 83.8 °F 64.9 °F 56% 30.09 in 10.0 mi SSW 10.4 mph - N/A   Partly Cloudy
3:53 PM 81.0 °F 82.7 °F 64.9 °F 58% 30.09 in 10.0 mi WSW 6.9 mph - N/A   Partly Cloudy
4:53 PM 79.0 °F - 64.9 °F 62% 30.10 in 10.0 mi WSW 9.2 mph - N/A   Overcast
5:53 PM 75.0 °F - 66.9 °F 76% 30.11 in 10.0 mi WSW 9.2 mph - N/A   Overcast
6:53 PM 73.9 °F - 68.0 °F 82% 30.12 in 10.0 mi WSW 6.9 mph - N/A   Overcast
7:53 PM 72.0 °F - 68.0 °F 87% 30.14 in 10.0 mi WSW 8.1 mph - N/A   Overcast
8:53 PM 70.0 °F - 66.9 °F 90% 30.14 in 10.0 mi WSW 4.6 mph - N/A   Scattered Clouds
9:53 PM 70.0 °F - 68.0 °F 93% 30.13 in 10.0 mi SW 4.6 mph - N/A   Clear
10:53 PM 69.1 °F - 68.0 °F 96% 30.12 in 9.0 mi South 4.6 mph - N/A   Clear
11:27 PM 66.0 °F - 64.9 °F 96% 30.12 in 7.0 mi Calm Calm - N/A   Mostly Cloudy
11:37 PM 66.0 °F - 64.9 °F 96% 30.12 in 5.0 mi SE 3.5 mph - N/A   Overcast
11:53 PM 66.0 °F - 64.9 °F 96% 30.11 in 6.0 mi Calm Calm - N/A   Overcast